Year,Month,Day,Hour,Minute,Value (Times are PST for temperature in C)
2015,07,26,00,00,16.40
2015,07,26,00,01,16.40
2015,07,26,00,02,16.40
2015,07,26,00,03,16.40
2015,07,26,00,04,16.40
2015,07,26,00,05,16.40
2015,07,26,00,06,16.40
2015,07,26,00,07,16.40
2015,07,26,00,08,16.40
2015,07,26,00,09,16.40
2015,07,26,00,10,16.40
2015,07,26,00,11,16.40
2015,07,26,00,12,16.40
2015,07,26,00,13,16.40
2015,07,26,00,14,16.40
2015,07,26,00,15,16.50
2015,07,26,00,16,16.50
2015,07,26,00,17,16.50
2015,07,26,00,18,16.50
2015,07,26,00,19,16.50
2015,07,26,00,20,16.50
2015,07,26,00,21,16.50
2015,07,26,00,22,16.50
2015,07,26,00,23,16.50
2015,07,26,00,24,16.50
2015,07,26,00,25,16.50
2015,07,26,00,26,16.50
2015,07,26,00,27,16.50
2015,07,26,00,28,16.40
2015,07,26,00,29,16.50
2015,07,26,00,30,16.40
2015,07,26,00,31,16.40
2015,07,26,00,32,16.40
2015,07,26,00,33,16.40
2015,07,26,00,34,16.40
2015,07,26,00,35,16.40
2015,07,26,00,36,16.30
2015,07,26,00,37,16.30
2015,07,26,00,38,16.30
2015,07,26,00,39,16.30
2015,07,26,00,40,16.30
2015,07,26,00,41,16.30
2015,07,26,00,42,16.30
2015,07,26,00,43,16.30
2015,07,26,00,44,16.30
2015,07,26,00,45,16.30
2015,07,26,00,46,16.30
2015,07,26,00,47,16.30
2015,07,26,00,48,16.30
2015,07,26,00,49,16.30
2015,07,26,00,50,16.20
2015,07,26,00,51,16.20
2015,07,26,00,52,16.20
2015,07,26,00,53,16.20
2015,07,26,00,54,16.20
2015,07,26,00,55,16.20
2015,07,26,00,56,16.20
2015,07,26,00,57,16.20
2015,07,26,00,58,16.10
2015,07,26,00,59,16.10
2015,07,26,01,00,16.10
2015,07,26,01,01,16.10
2015,07,26,01,02,16.10
2015,07,26,01,03,16.10
2015,07,26,01,04,16.00
2015,07,26,01,05,16.00
2015,07,26,01,06,16.00
2015,07,26,01,07,16.00
2015,07,26,01,08,16.00
2015,07,26,01,09,16.00
2015,07,26,01,10,16.00
2015,07,26,01,11,16.00
2015,07,26,01,12,15.90
2015,07,26,01,13,15.90
2015,07,26,01,14,15.90
2015,07,26,01,15,15.90
2015,07,26,01,16,15.90
2015,07,26,01,17,15.90
2015,07,26,01,18,15.90
2015,07,26,01,19,15.90
2015,07,26,01,20,15.80
2015,07,26,01,21,15.80
2015,07,26,01,22,15.80
2015,07,26,01,23,15.80
2015,07,26,01,24,15.80
2015,07,26,01,25,15.80
2015,07,26,01,26,15.80
2015,07,26,01,27,15.70
2015,07,26,01,28,15.70
2015,07,26,01,29,15.60
2015,07,26,01,30,15.60
2015,07,26,01,31,15.60
2015,07,26,01,32,15.50
2015,07,26,01,33,15.50
2015,07,26,01,34,15.40
2015,07,26,01,35,15.40
2015,07,26,01,36,15.40
2015,07,26,01,37,15.40
2015,07,26,01,38,15.40
2015,07,26,01,39,15.40
2015,07,26,01,40,15.40
2015,07,26,01,41,15.40
2015,07,26,01,42,15.40
2015,07,26,01,43,15.40
2015,07,26,01,44,15.40
2015,07,26,01,45,15.40
2015,07,26,01,46,15.40
2015,07,26,01,47,15.40
2015,07,26,01,48,15.40
2015,07,26,01,49,15.40
2015,07,26,01,50,15.40
2015,07,26,01,51,15.40
2015,07,26,01,52,15.30
2015,07,26,01,53,15.30
2015,07,26,01,54,15.30
2015,07,26,01,55,15.30
2015,07,26,01,56,15.30
2015,07,26,01,57,15.30
2015,07,26,01,58,15.30
2015,07,26,01,59,15.40
2015,07,26,02,00,15.40
2015,07,26,02,01,15.40
2015,07,26,02,02,15.40
2015,07,26,02,03,15.40
2015,07,26,02,04,15.40
2015,07,26,02,05,15.40
2015,07,26,02,06,15.40
2015,07,26,02,07,15.40
2015,07,26,02,08,15.40
2015,07,26,02,09,15.40
2015,07,26,02,10,15.40
2015,07,26,02,11,15.40
2015,07,26,02,12,15.40
2015,07,26,02,13,15.40
2015,07,26,02,14,15.40
2015,07,26,02,15,15.40
2015,07,26,02,16,15.40
2015,07,26,02,17,15.40
2015,07,26,02,18,15.40
2015,07,26,02,19,15.40
2015,07,26,02,20,15.40
2015,07,26,02,21,15.40
2015,07,26,02,22,15.40
2015,07,26,02,23,15.40
2015,07,26,02,24,15.40
2015,07,26,02,25,15.30
2015,07,26,02,26,15.30
2015,07,26,02,27,15.30
2015,07,26,02,28,15.30
2015,07,26,02,29,15.30
2015,07,26,02,30,15.30
2015,07,26,02,31,15.30
2015,07,26,02,32,15.30
2015,07,26,02,33,15.30
2015,07,26,02,34,15.30
2015,07,26,02,35,15.30
2015,07,26,02,36,15.30
2015,07,26,02,37,15.30
2015,07,26,02,38,15.30
2015,07,26,02,39,15.20
2015,07,26,02,40,15.20
2015,07,26,02,41,15.10
2015,07,26,02,42,15.10
2015,07,26,02,43,15.00
2015,07,26,02,44,15.00
2015,07,26,02,45,15.00
2015,07,26,02,46,15.00
2015,07,26,02,47,15.00
2015,07,26,02,48,14.90
2015,07,26,02,49,14.80
2015,07,26,02,50,14.80
2015,07,26,02,51,14.90
2015,07,26,02,52,14.90
2015,07,26,02,53,14.90
2015,07,26,02,54,14.90
2015,07,26,02,55,14.90
2015,07,26,02,56,15.00
2015,07,26,02,57,15.00
2015,07,26,02,58,15.00
2015,07,26,02,59,15.00
2015,07,26,03,00,15.00
2015,07,26,03,01,15.00
2015,07,26,03,02,15.00
2015,07,26,03,03,15.00
2015,07,26,03,04,15.00
2015,07,26,03,05,15.00
2015,07,26,03,06,14.90
2015,07,26,03,07,14.80
2015,07,26,03,08,14.80
2015,07,26,03,09,14.80
2015,07,26,03,10,14.80
2015,07,26,03,11,14.70
2015,07,26,03,12,14.70
2015,07,26,03,13,14.70
2015,07,26,03,14,14.60
2015,07,26,03,15,14.60
2015,07,26,03,16,14.60
2015,07,26,03,17,14.50
2015,07,26,03,18,14.50
2015,07,26,03,19,14.40
2015,07,26,03,20,14.40
2015,07,26,03,21,14.40
2015,07,26,03,22,14.30
2015,07,26,03,23,14.30
2015,07,26,03,24,14.30
2015,07,26,03,25,14.30
2015,07,26,03,26,14.20
2015,07,26,03,27,14.20
2015,07,26,03,28,14.20
2015,07,26,03,29,14.10
2015,07,26,03,30,14.00
2015,07,26,03,31,13.90
2015,07,26,03,32,13.90
2015,07,26,03,33,13.80
2015,07,26,03,34,13.80
2015,07,26,03,35,13.80
2015,07,26,03,36,13.70
2015,07,26,03,37,13.70
2015,07,26,03,38,13.70
2015,07,26,03,39,13.60
2015,07,26,03,40,13.60
2015,07,26,03,41,13.60
2015,07,26,03,42,13.50
2015,07,26,03,43,13.50
2015,07,26,03,44,13.40
2015,07,26,03,45,13.40
2015,07,26,03,46,13.40
2015,07,26,03,47,13.30
2015,07,26,03,48,13.30
2015,07,26,03,49,13.30
2015,07,26,03,50,13.20
2015,07,26,03,51,13.20
2015,07,26,03,52,13.20
2015,07,26,03,53,13.20
2015,07,26,03,54,13.20
2015,07,26,03,55,13.20
2015,07,26,03,56,13.20
2015,07,26,03,57,13.10
2015,07,26,03,58,13.10
2015,07,26,03,59,13.10
2015,07,26,04,00,13.10
2015,07,26,04,01,13.00
2015,07,26,04,02,13.00
2015,07,26,04,03,12.90
2015,07,26,04,04,12.90
2015,07,26,04,05,12.90
2015,07,26,04,06,12.90
2015,07,26,04,07,12.80
2015,07,26,04,08,12.80
2015,07,26,04,09,12.80
2015,07,26,04,10,12.80
2015,07,26,04,11,12.80
2015,07,26,04,12,12.80
2015,07,26,04,13,12.70
2015,07,26,04,14,12.70
2015,07,26,04,15,12.70
2015,07,26,04,16,12.70
2015,07,26,04,17,12.70
2015,07,26,04,18,12.70
2015,07,26,04,19,12.60
2015,07,26,04,20,12.60
2015,07,26,04,21,12.60
2015,07,26,04,22,12.60
2015,07,26,04,23,12.60
2015,07,26,04,24,12.60
2015,07,26,04,25,12.60
2015,07,26,04,26,12.60
2015,07,26,04,27,12.60
2015,07,26,04,28,12.50
2015,07,26,04,29,12.50
2015,07,26,04,30,12.50
2015,07,26,04,31,12.40
2015,07,26,04,32,12.40
2015,07,26,04,33,12.40
2015,07,26,04,34,12.40
2015,07,26,04,35,12.30
2015,07,26,04,36,12.30
2015,07,26,04,37,12.30
2015,07,26,04,38,12.30
2015,07,26,04,39,12.30
2015,07,26,04,40,12.30
2015,07,26,04,41,12.30
2015,07,26,04,42,12.30
2015,07,26,04,43,12.30
2015,07,26,04,44,12.30
2015,07,26,04,45,12.30
2015,07,26,04,46,12.30
2015,07,26,04,47,12.30
2015,07,26,04,48,12.30
2015,07,26,04,49,12.30
2015,07,26,04,50,12.30
2015,07,26,04,51,12.30
2015,07,26,04,52,12.30
2015,07,26,04,53,12.30
2015,07,26,04,54,12.30
2015,07,26,04,55,12.30
2015,07,26,04,56,12.30
2015,07,26,04,57,12.30
2015,07,26,04,58,12.20
2015,07,26,04,59,12.20
2015,07,26,05,00,12.20
2015,07,26,05,01,12.20
2015,07,26,05,02,12.20
2015,07,26,05,03,12.20
2015,07,26,05,04,12.20
2015,07,26,05,05,12.20
2015,07,26,05,06,12.20
2015,07,26,05,07,12.20
2015,07,26,05,08,12.20
2015,07,26,05,09,12.20
2015,07,26,05,10,12.20
2015,07,26,05,11,12.20
2015,07,26,05,12,12.20
2015,07,26,05,13,12.20
2015,07,26,05,14,12.20
2015,07,26,05,15,12.20
2015,07,26,05,16,12.20
2015,07,26,05,17,12.20
2015,07,26,05,18,12.20
2015,07,26,05,19,12.20
2015,07,26,05,20,12.20
2015,07,26,05,21,12.20
2015,07,26,05,22,12.20
2015,07,26,05,23,12.20
2015,07,26,05,24,12.20
2015,07,26,05,25,12.20
2015,07,26,05,26,12.20
2015,07,26,05,27,12.20
2015,07,26,05,28,12.20
2015,07,26,05,29,12.20
2015,07,26,05,30,12.20
2015,07,26,05,31,12.20
2015,07,26,05,32,12.20
2015,07,26,05,33,12.20
2015,07,26,05,34,12.20
2015,07,26,05,35,12.10
2015,07,26,05,36,12.20
2015,07,26,05,37,12.20
2015,07,26,05,38,12.20
2015,07,26,05,39,12.20
2015,07,26,05,40,12.20
2015,07,26,05,41,12.20
2015,07,26,05,42,12.20
2015,07,26,05,43,12.20
2015,07,26,05,44,12.20
2015,07,26,05,45,12.20
2015,07,26,05,46,12.20
2015,07,26,05,47,12.20
2015,07,26,05,48,12.20
2015,07,26,05,49,12.20
2015,07,26,05,50,12.20
2015,07,26,05,51,12.20
2015,07,26,05,52,12.20
2015,07,26,05,53,12.20
2015,07,26,05,54,12.20
2015,07,26,05,55,12.20
2015,07,26,05,56,12.20
2015,07,26,05,57,12.20
2015,07,26,05,58,12.20
2015,07,26,05,59,12.20
2015,07,26,06,00,12.20
2015,07,26,06,01,12.20
2015,07,26,06,02,12.20
2015,07,26,06,03,12.20
2015,07,26,06,04,12.20
2015,07,26,06,05,12.20
2015,07,26,06,06,12.30
2015,07,26,06,07,12.30
2015,07,26,06,08,12.30
2015,07,26,06,09,12.30
2015,07,26,06,10,12.40
2015,07,26,06,11,12.40
2015,07,26,06,12,12.40
2015,07,26,06,13,12.40
2015,07,26,06,14,12.50
2015,07,26,06,15,12.50
2015,07,26,06,16,12.50
2015,07,26,06,17,12.60
2015,07,26,06,18,12.60
2015,07,26,06,19,12.60
2015,07,26,06,20,12.60
2015,07,26,06,21,12.60
2015,07,26,06,22,12.70
2015,07,26,06,23,12.70
2015,07,26,06,24,12.70
2015,07,26,06,25,12.70
2015,07,26,06,26,12.70
2015,07,26,06,27,12.70
2015,07,26,06,28,12.80
2015,07,26,06,29,12.80
2015,07,26,06,30,12.80
2015,07,26,06,31,12.80
2015,07,26,06,32,12.80
2015,07,26,06,33,12.80
2015,07,26,06,34,12.80
2015,07,26,06,35,12.80
2015,07,26,06,36,12.80
2015,07,26,06,37,12.90
2015,07,26,06,38,12.90
2015,07,26,06,39,12.90
2015,07,26,06,40,12.90
2015,07,26,06,41,13.00
2015,07,26,06,42,13.00
2015,07,26,06,43,13.00
2015,07,26,06,44,13.00
2015,07,26,06,45,13.10
2015,07,26,06,46,13.10
2015,07,26,06,47,13.10
2015,07,26,06,48,13.20
2015,07,26,06,49,13.20
2015,07,26,06,50,13.20
2015,07,26,06,51,13.30
2015,07,26,06,52,13.30
2015,07,26,06,53,13.30
2015,07,26,06,54,13.30
2015,07,26,06,55,13.30
2015,07,26,06,56,13.30
2015,07,26,06,57,13.30
2015,07,26,06,58,13.30
2015,07,26,06,59,13.30
2015,07,26,07,00,13.30
2015,07,26,07,01,13.40
2015,07,26,07,02,13.40
2015,07,26,07,03,13.40
2015,07,26,07,04,13.50
2015,07,26,07,05,13.50
2015,07,26,07,06,13.50
2015,07,26,07,07,13.50
2015,07,26,07,08,13.60
2015,07,26,07,09,13.60
2015,07,26,07,10,13.60
2015,07,26,07,11,13.70
2015,07,26,07,12,13.70
2015,07,26,07,13,13.70
2015,07,26,07,14,13.70
2015,07,26,07,15,13.70
2015,07,26,07,16,13.80
2015,07,26,07,17,13.80
2015,07,26,07,18,13.90
2015,07,26,07,19,13.90
2015,07,26,07,20,14.00
2015,07,26,07,21,14.00
2015,07,26,07,22,14.10
2015,07,26,07,23,14.10
2015,07,26,07,24,14.10
2015,07,26,07,25,14.20
2015,07,26,07,26,14.20
2015,07,26,07,27,14.20
2015,07,26,07,28,14.20
2015,07,26,07,29,14.30
2015,07,26,07,30,14.30
2015,07,26,07,31,14.30
2015,07,26,07,32,14.30
2015,07,26,07,33,14.30
2015,07,26,07,34,14.40
2015,07,26,07,35,14.40
2015,07,26,07,36,14.40
2015,07,26,07,37,14.40
2015,07,26,07,38,14.50
2015,07,26,07,39,14.50
2015,07,26,07,40,14.50
2015,07,26,07,41,14.50
2015,07,26,07,42,14.60
2015,07,26,07,43,14.60
2015,07,26,07,44,14.60
2015,07,26,07,45,14.70
2015,07,26,07,46,14.70
2015,07,26,07,47,14.70
2015,07,26,07,48,14.70
2015,07,26,07,49,14.70
2015,07,26,07,50,14.80
2015,07,26,07,51,14.80
2015,07,26,07,52,14.90
2015,07,26,07,53,15.00
2015,07,26,07,54,15.00
2015,07,26,07,55,15.00
2015,07,26,07,56,15.00
2015,07,26,07,57,15.00
2015,07,26,07,58,15.00
2015,07,26,07,59,15.00
2015,07,26,08,00,15.00
2015,07,26,08,01,15.00
2015,07,26,08,02,15.00
2015,07,26,08,03,15.00
2015,07,26,08,04,15.00
2015,07,26,08,05,15.00
2015,07,26,08,06,15.00
2015,07,26,08,07,15.10
2015,07,26,08,08,15.10
2015,07,26,08,09,15.20
2015,07,26,08,10,15.20
2015,07,26,08,11,15.20
2015,07,26,08,12,15.20
2015,07,26,08,13,15.20
2015,07,26,08,14,15.20
2015,07,26,08,15,15.20
2015,07,26,08,16,15.30
2015,07,26,08,17,15.30
2015,07,26,08,18,15.30
2015,07,26,08,19,15.30
2015,07,26,08,20,15.30
2015,07,26,08,21,15.40
2015,07,26,08,22,15.40
2015,07,26,08,23,15.40
2015,07,26,08,24,15.40
2015,07,26,08,25,15.40
2015,07,26,08,26,15.50
2015,07,26,08,27,15.50
2015,07,26,08,28,15.60
2015,07,26,08,29,15.60
2015,07,26,08,30,15.60
2015,07,26,08,31,15.60
2015,07,26,08,32,15.70
2015,07,26,08,33,15.70
2015,07,26,08,34,15.70
2015,07,26,08,35,15.70
2015,07,26,08,36,15.80
2015,07,26,08,37,15.80
2015,07,26,08,38,15.80
2015,07,26,08,39,15.90
2015,07,26,08,40,15.90
2015,07,26,08,41,15.90
2015,07,26,08,42,16.00
2015,07,26,08,43,16.00
2015,07,26,08,44,16.00
2015,07,26,08,45,16.00
2015,07,26,08,46,16.00
2015,07,26,08,47,16.00
2015,07,26,08,48,16.10
2015,07,26,08,49,16.10
2015,07,26,08,50,16.10
2015,07,26,08,51,16.10
2015,07,26,08,52,16.10
2015,07,26,08,53,16.10
2015,07,26,08,54,16.10
2015,07,26,08,55,16.10
2015,07,26,08,56,16.10
2015,07,26,08,57,16.10
2015,07,26,08,58,16.20
2015,07,26,08,59,16.20
2015,07,26,09,00,16.20
2015,07,26,09,01,16.20
2015,07,26,09,02,16.30
2015,07,26,09,03,16.30
2015,07,26,09,04,16.40
2015,07,26,09,05,16.40
2015,07,26,09,06,16.40
2015,07,26,09,07,16.50
2015,07,26,09,08,16.50
2015,07,26,09,09,16.60
2015,07,26,09,10,16.60
2015,07,26,09,11,16.60
2015,07,26,09,12,16.70
2015,07,26,09,13,16.70
2015,07,26,09,14,16.70
2015,07,26,09,15,16.70
2015,07,26,09,16,16.70
2015,07,26,09,17,16.80
2015,07,26,09,18,16.80
2015,07,26,09,19,16.80
2015,07,26,09,20,16.80
2015,07,26,09,21,16.90
2015,07,26,09,22,16.90
2015,07,26,09,23,16.90
2015,07,26,09,24,16.90
2015,07,26,09,25,16.90
2015,07,26,09,26,16.90
2015,07,26,09,27,16.90
2015,07,26,09,28,16.90
2015,07,26,09,29,16.90
2015,07,26,09,30,16.90
2015,07,26,09,31,16.90
2015,07,26,09,32,17.00
2015,07,26,09,33,17.00
2015,07,26,09,34,17.00
2015,07,26,09,35,17.00
2015,07,26,09,36,17.00
2015,07,26,09,37,17.00
2015,07,26,09,38,17.00
2015,07,26,09,39,17.10
2015,07,26,09,40,17.10
2015,07,26,09,41,17.10
2015,07,26,09,42,17.10
2015,07,26,09,43,17.10
2015,07,26,09,44,17.10
2015,07,26,09,45,17.10
2015,07,26,09,46,17.20
2015,07,26,09,47,17.20
2015,07,26,09,48,17.20
2015,07,26,09,49,17.20
2015,07,26,09,50,17.30
2015,07,26,09,51,17.30
2015,07,26,09,52,17.30
2015,07,26,09,53,17.40
2015,07,26,09,54,17.40
2015,07,26,09,55,17.40
2015,07,26,09,56,17.40
2015,07,26,09,57,17.40
2015,07,26,09,58,17.40
2015,07,26,09,59,17.40
2015,07,26,10,00,17.40
2015,07,26,10,01,17.40
2015,07,26,10,02,17.40
2015,07,26,10,03,17.40
2015,07,26,10,04,17.40
2015,07,26,10,05,17.40
2015,07,26,10,06,17.40
2015,07,26,10,07,17.40
2015,07,26,10,08,17.50
2015,07,26,10,09,17.50
2015,07,26,10,10,17.50
2015,07,26,10,11,17.60
2015,07,26,10,12,17.60
2015,07,26,10,13,17.60
2015,07,26,10,14,17.70
2015,07,26,10,15,17.70
2015,07,26,10,16,17.70
2015,07,26,10,17,17.70
2015,07,26,10,18,17.70
2015,07,26,10,19,17.70
2015,07,26,10,20,17.70
2015,07,26,10,21,17.70
2015,07,26,10,22,17.70
2015,07,26,10,23,17.70
2015,07,26,10,24,17.70
2015,07,26,10,25,17.70
2015,07,26,10,26,17.80
2015,07,26,10,27,17.80
2015,07,26,10,28,17.80
2015,07,26,10,29,17.90
2015,07,26,10,30,17.90
2015,07,26,10,31,17.90
2015,07,26,10,32,18.00
2015,07,26,10,33,18.00
2015,07,26,10,34,18.00
2015,07,26,10,35,18.10
2015,07,26,10,36,18.10
2015,07,26,10,37,18.10
2015,07,26,10,38,18.10
2015,07,26,10,39,18.10
2015,07,26,10,40,18.10
2015,07,26,10,41,18.20
2015,07,26,10,42,18.20
2015,07,26,10,43,18.20
2015,07,26,10,44,18.20
2015,07,26,10,45,18.20
2015,07,26,10,46,18.20
2015,07,26,10,47,18.20
2015,07,26,10,48,18.20
2015,07,26,10,49,18.20
2015,07,26,10,50,18.30
2015,07,26,10,51,18.30
2015,07,26,10,52,18.30
2015,07,26,10,53,18.40
2015,07,26,10,54,18.50
2015,07,26,10,55,18.50
2015,07,26,10,56,18.50
2015,07,26,10,57,18.60
2015,07,26,10,58,18.60
2015,07,26,10,59,18.60
2015,07,26,11,00,18.60
2015,07,26,11,01,18.60
2015,07,26,11,02,18.60
2015,07,26,11,03,18.60
2015,07,26,11,04,18.60
2015,07,26,11,05,18.60
2015,07,26,11,06,18.60
2015,07,26,11,07,18.60
2015,07,26,11,08,18.60
2015,07,26,11,09,18.60
2015,07,26,11,10,18.60
2015,07,26,11,11,18.60
2015,07,26,11,12,18.60
2015,07,26,11,13,18.60
2015,07,26,11,14,18.60
2015,07,26,11,15,18.60
2015,07,26,11,16,18.60
2015,07,26,11,17,18.60
2015,07,26,11,18,18.60
2015,07,26,11,19,18.60
2015,07,26,11,20,18.60
2015,07,26,11,21,18.60
2015,07,26,11,22,18.70
2015,07,26,11,23,18.70
2015,07,26,11,24,18.80
2015,07,26,11,25,18.80
2015,07,26,11,26,18.90
2015,07,26,11,27,19.00
2015,07,26,11,28,19.10
2015,07,26,11,29,19.20
2015,07,26,11,30,19.30
2015,07,26,11,31,19.40
2015,07,26,11,32,19.50
2015,07,26,11,33,19.60
2015,07,26,11,34,19.60
2015,07,26,11,35,19.70
2015,07,26,11,36,19.60
2015,07,26,11,37,19.60
2015,07,26,11,38,19.50
2015,07,26,11,39,19.50
2015,07,26,11,40,19.50
2015,07,26,11,41,19.50
2015,07,26,11,42,19.50
2015,07,26,11,43,19.50
2015,07,26,11,44,19.50
2015,07,26,11,45,19.50
2015,07,26,11,46,19.40
2015,07,26,11,47,19.40
2015,07,26,11,48,19.40
2015,07,26,11,49,19.40
2015,07,26,11,50,19.30
2015,07,26,11,51,19.30
2015,07,26,11,52,19.20
2015,07,26,11,53,19.20
2015,07,26,11,54,19.10
2015,07,26,11,55,19.10
2015,07,26,11,56,19.10
2015,07,26,11,57,19.00
2015,07,26,11,58,19.00
2015,07,26,11,59,19.00
2015,07,26,12,00,18.90
2015,07,26,12,01,18.90
2015,07,26,12,02,18.90
2015,07,26,12,03,18.90
2015,07,26,12,04,18.70
2015,07,26,12,05,18.60
2015,07,26,12,06,18.50
2015,07,26,12,07,18.40
2015,07,26,12,08,18.40
2015,07,26,12,09,18.30
2015,07,26,12,10,18.30
2015,07,26,12,11,18.20
2015,07,26,12,12,18.20
2015,07,26,12,13,18.20
2015,07,26,12,14,18.20
2015,07,26,12,15,18.10
2015,07,26,12,16,18.10
2015,07,26,12,17,18.00
2015,07,26,12,18,17.80
2015,07,26,12,19,17.70
2015,07,26,12,20,17.50
2015,07,26,12,21,17.30
2015,07,26,12,22,16.90
2015,07,26,12,23,16.60
2015,07,26,12,24,16.30
2015,07,26,12,25,16.10
2015,07,26,12,26,15.90
2015,07,26,12,27,15.70
2015,07,26,12,28,15.60
2015,07,26,12,29,15.50
2015,07,26,12,30,15.50
2015,07,26,12,31,15.40
2015,07,26,12,32,15.30
2015,07,26,12,33,15.20
2015,07,26,12,34,15.10
2015,07,26,12,35,15.10
2015,07,26,12,36,15.00
2015,07,26,12,37,15.00
2015,07,26,12,38,15.00
2015,07,26,12,39,15.00
2015,07,26,12,40,15.00
2015,07,26,12,41,15.00
2015,07,26,12,42,15.00
2015,07,26,12,43,15.00
2015,07,26,12,44,15.00
2015,07,26,12,45,15.00
2015,07,26,12,46,15.00
2015,07,26,12,47,15.00
2015,07,26,12,48,15.00
2015,07,26,12,49,15.00
2015,07,26,12,50,15.00
2015,07,26,12,51,15.00
2015,07,26,12,52,15.00
2015,07,26,12,53,14.90
2015,07,26,12,54,14.90
2015,07,26,12,55,14.90
2015,07,26,12,56,14.90
2015,07,26,12,57,14.90
2015,07,26,12,58,14.90
2015,07,26,12,59,14.90
2015,07,26,13,00,14.90
2015,07,26,13,01,14.90
2015,07,26,13,02,14.80
2015,07,26,13,03,14.80
2015,07,26,13,04,14.90
2015,07,26,13,05,14.90
2015,07,26,13,06,15.00
2015,07,26,13,07,15.00
2015,07,26,13,08,15.00
2015,07,26,13,09,15.00
2015,07,26,13,10,15.00
2015,07,26,13,11,15.00
2015,07,26,13,12,15.00
2015,07,26,13,13,14.90
2015,07,26,13,14,14.90
2015,07,26,13,15,14.90
2015,07,26,13,16,15.00
2015,07,26,13,17,15.00
2015,07,26,13,18,15.00
2015,07,26,13,19,15.00
2015,07,26,13,20,15.00
2015,07,26,13,21,15.00
2015,07,26,13,22,15.00
2015,07,26,13,23,15.00
2015,07,26,13,24,15.00
2015,07,26,13,25,15.00
2015,07,26,13,26,15.00
2015,07,26,13,27,15.00
2015,07,26,13,28,15.00
2015,07,26,13,29,15.00
2015,07,26,13,30,15.00
2015,07,26,13,31,15.00
2015,07,26,13,32,15.00
2015,07,26,13,33,15.00
2015,07,26,13,34,15.00
2015,07,26,13,35,15.00
2015,07,26,13,36,15.00
2015,07,26,13,37,15.00
2015,07,26,13,38,15.00
2015,07,26,13,39,15.00
2015,07,26,13,40,15.00
2015,07,26,13,41,15.00
2015,07,26,13,42,15.00
2015,07,26,13,43,15.00
2015,07,26,13,44,15.00
2015,07,26,13,45,15.00
2015,07,26,13,46,15.00
2015,07,26,13,47,15.00
2015,07,26,13,48,15.00
2015,07,26,13,49,15.00
2015,07,26,13,50,15.00
2015,07,26,13,51,15.00
2015,07,26,13,52,15.00
2015,07,26,13,53,15.00
2015,07,26,13,54,15.00
2015,07,26,13,55,15.00
2015,07,26,13,56,15.00
2015,07,26,13,57,15.00
2015,07,26,13,58,15.00
2015,07,26,13,59,15.00
2015,07,26,14,00,15.00
2015,07,26,14,01,15.00
2015,07,26,14,02,15.00
2015,07,26,14,03,15.00
2015,07,26,14,04,15.00
2015,07,26,14,05,15.00
2015,07,26,14,06,14.90
2015,07,26,14,07,14.90
2015,07,26,14,08,14.90
2015,07,26,14,09,14.90
2015,07,26,14,10,14.90
2015,07,26,14,11,14.90
2015,07,26,14,12,14.90
2015,07,26,14,13,15.00
2015,07,26,14,14,15.00
2015,07,26,14,15,15.00
2015,07,26,14,16,15.00
2015,07,26,14,17,14.90
2015,07,26,14,18,14.90
2015,07,26,14,19,14.80
2015,07,26,14,20,14.80
2015,07,26,14,21,14.80
2015,07,26,14,22,14.80
2015,07,26,14,23,14.80
2015,07,26,14,24,14.80
2015,07,26,14,25,14.80
2015,07,26,14,26,14.80
2015,07,26,14,27,14.80
2015,07,26,14,28,14.80
2015,07,26,14,29,14.80
2015,07,26,14,30,14.80
2015,07,26,14,31,14.80
2015,07,26,14,32,14.80
2015,07,26,14,33,14.80
2015,07,26,14,34,14.80
2015,07,26,14,35,14.80
2015,07,26,14,36,14.80
2015,07,26,14,37,14.80
2015,07,26,14,38,14.80
2015,07,26,14,39,14.80
2015,07,26,14,40,14.80
2015,07,26,14,41,14.80
2015,07,26,14,42,14.80
2015,07,26,14,43,14.80
2015,07,26,14,44,14.80
2015,07,26,14,45,14.80
2015,07,26,14,46,14.80
2015,07,26,14,47,14.80
2015,07,26,14,48,14.80
2015,07,26,14,49,14.80
2015,07,26,14,50,14.80
2015,07,26,14,51,14.70
2015,07,26,14,52,14.70
2015,07,26,14,53,14.70
2015,07,26,14,54,14.60
2015,07,26,14,55,14.60
2015,07,26,14,56,14.60
2015,07,26,14,57,14.60
2015,07,26,14,58,14.60
2015,07,26,14,59,14.60
2015,07,26,15,00,14.60
2015,07,26,15,01,14.60
2015,07,26,15,02,14.60
2015,07,26,15,03,14.60
2015,07,26,15,04,14.60
2015,07,26,15,05,14.60
2015,07,26,15,06,14.60
2015,07,26,15,07,14.70
2015,07,26,15,08,14.70
2015,07,26,15,09,14.70
2015,07,26,15,10,14.70
2015,07,26,15,11,14.70
2015,07,26,15,12,14.60
2015,07,26,15,13,14.60
2015,07,26,15,14,14.50
2015,07,26,15,15,14.50
2015,07,26,15,16,14.50
2015,07,26,15,17,14.50
2015,07,26,15,18,14.50
2015,07,26,15,19,14.50
2015,07,26,15,20,14.40
2015,07,26,15,21,14.40
2015,07,26,15,22,14.40
2015,07,26,15,23,14.40
2015,07,26,15,24,14.40
2015,07,26,15,25,14.40
2015,07,26,15,26,14.40
2015,07,26,15,27,14.40
2015,07,26,15,28,14.50
2015,07,26,15,29,14.40
2015,07,26,15,30,14.50
2015,07,26,15,31,14.40
2015,07,26,15,32,14.40
2015,07,26,15,33,14.40
2015,07,26,15,34,14.40
2015,07,26,15,35,14.50
2015,07,26,15,36,14.50
2015,07,26,15,37,14.50
2015,07,26,15,38,14.40
2015,07,26,15,39,14.40
2015,07,26,15,40,14.40
2015,07,26,15,41,14.40
2015,07,26,15,42,14.40
2015,07,26,15,43,14.40
2015,07,26,15,44,14.50
2015,07,26,15,45,14.50
2015,07,26,15,46,14.50
2015,07,26,15,47,14.50
2015,07,26,15,48,14.50
2015,07,26,15,49,14.50
2015,07,26,15,50,14.60
2015,07,26,15,51,14.60
2015,07,26,15,52,14.60
2015,07,26,15,53,14.60
2015,07,26,15,54,14.70
2015,07,26,15,55,14.70
2015,07,26,15,56,14.70
2015,07,26,15,57,14.70
2015,07,26,15,58,14.80
2015,07,26,15,59,14.80
2015,07,26,16,00,14.90
2015,07,26,16,01,14.90
2015,07,26,16,02,15.00
2015,07,26,16,03,15.00
2015,07,26,16,04,15.00
2015,07,26,16,05,15.00
2015,07,26,16,06,15.00
2015,07,26,16,07,15.00
2015,07,26,16,08,15.00
2015,07,26,16,09,15.00
2015,07,26,16,10,15.00
2015,07,26,16,11,15.00
2015,07,26,16,12,15.10
2015,07,26,16,13,15.10
2015,07,26,16,14,15.20
2015,07,26,16,15,15.20
2015,07,26,16,16,15.30
2015,07,26,16,17,15.30
2015,07,26,16,18,15.30
2015,07,26,16,19,15.40
2015,07,26,16,20,15.40
2015,07,26,16,21,15.50
2015,07,26,16,22,15.50
2015,07,26,16,23,15.50
2015,07,26,16,24,15.50
2015,07,26,16,25,15.50
2015,07,26,16,26,15.60
2015,07,26,16,27,15.60
2015,07,26,16,28,15.60
2015,07,26,16,29,15.60
2015,07,26,16,30,15.70
2015,07,26,16,31,15.80
2015,07,26,16,32,15.80
2015,07,26,16,33,15.90
2015,07,26,16,34,15.90
2015,07,26,16,35,15.80
2015,07,26,16,36,15.80
2015,07,26,16,37,15.90
2015,07,26,16,38,15.90
2015,07,26,16,39,15.80
2015,07,26,16,40,15.90
2015,07,26,16,41,15.90
2015,07,26,16,42,16.00
2015,07,26,16,43,16.00
2015,07,26,16,44,16.10
2015,07,26,16,45,16.20
2015,07,26,16,46,16.20
2015,07,26,16,47,16.30
2015,07,26,16,48,16.40
2015,07,26,16,49,16.50
2015,07,26,16,50,16.60
2015,07,26,16,51,16.70
2015,07,26,16,52,16.80
2015,07,26,16,53,16.90
2015,07,26,16,54,16.90
2015,07,26,16,55,17.00
2015,07,26,16,56,17.10
2015,07,26,16,57,17.20
2015,07,26,16,58,17.30
2015,07,26,16,59,17.40
2015,07,26,17,00,17.40
2015,07,26,17,01,17.50
2015,07,26,17,02,17.60
2015,07,26,17,03,17.60
2015,07,26,17,04,17.60
2015,07,26,17,05,17.50
2015,07,26,17,06,17.60
2015,07,26,17,07,17.60
2015,07,26,17,08,17.60
2015,07,26,17,09,17.50
2015,07,26,17,10,17.50
2015,07,26,17,11,17.40
2015,07,26,17,12,17.40
2015,07,26,17,13,17.40
2015,07,26,17,14,17.40
2015,07,26,17,15,17.40
2015,07,26,17,16,17.40
2015,07,26,17,17,17.40
2015,07,26,17,18,17.40
2015,07,26,17,19,17.50